Location: ??? ???
(33.4974°N, 35.4618°E)
Time: 18:22:07
(UTC+00:00)

OAO 2 Rocket - Pass Details

Date: 29 October 2020
Orbit: 676 x 746 km, 35.0° (Epoch: 30 November)

Event Time Altitude Azimuth Distance (km) Brightness Sun altitude
Rises 15:20:13 0° 264° (W) 3,075 9.1 -7.2°
Reaches altitude 10° 15:22:38 10° 265° (W) 2,147 7.6 -7.7°
Maximum altitude 15:27:40 80° 352° (N) 699 3.3 -8.7°
Enters shadow 15:32:11 12° 80° (E) 1,949 4.9 -9.7°
